Mc Cook Ben Nelson Regional Airport Mc Cook US
ICAO: KMCK
IATA: MCK
Category: Medium
Scheduled Services: No

Elevation: 2583 ft
TransAlt. 18000 ft.

Airport Communications:
ASOS:119.025
DENVER CNTR:118.475
COLUMBUS RDO:122.6
CTAF/UNICOM:122.8

KMCK Zoom In..

If you have problems with the map follow the link
https://www.worldairports.se/pages/airport.php?
ICAO=KMCK

Runways:

(A) RW 04 length 4000 ft width 75 ft
---- / hdg 38

(B) RW 12 length 6450 ft width 100 ft
ILS 110.95 / hdg 123

(C) RW 17 length 1350 ft width 160 ft
---- / hdg 173

(D) RW 22 length 4000 ft width 75 ft
---- / hdg 218

(E) RW 30 length 6450 ft width 100 ft
---- / hdg 303

(F) RW 35 length 1350 ft width 160 ft
---- / hdg 353

Location; KMCK
Day. 24 / Time. 08.53 Zulu
* Altimeter: 30.04
* Temperature: -01° c. -30.2°f.
* Wind from: 300° Speed 09 kn.
Dewpoint: -02° c.
Visibility: 10 Statute Miles.
Clouds: Overcast 4900 ft.

KMCK 240853Z AUTO 30009KT 10SM OVC049 M01/M02 A3004 RMK AO2 SLP189 T10061022 53016


Wind From 300°
Speed 09 kn.

 
 
jpsmedia.com for Web Design worldairports.se 2019   terms of use